| time (UTC) | temp F | wind direction | speed knots | gust knots | rain 1hr in | rain 24hr in | rain mn in | humidity % | barometer mb |
| 20260503022009 | 40 | 352 | 0.0 | 0.9 | 0.00 | 0.01 | 0.01 | 68 | 1018.2 |
| 20260503021515 | 40 | 352 | 0.0 | 0.0 | 0.00 | 0.01 | 0.01 | 67 | 1018.1 |
| 20260503021006 | 41 | 352 | 0.0 | 0.0 | 0.00 | 0.01 | 0.01 | 65 | 1018.1 |
| 20260503020506 | 41 | 352 | 0.0 | 0.0 | 0.00 | 0.01 | 0.01 | 64 | 1018.0 |
| 20260503020016 | 42 | 352 | 0.0 | 0.0 | 0.00 | 0.01 | 0.01 | 63 | 1018.0 |
| 20260503015505 | 42 | 352 | 0.0 | 0.0 | 0.00 | 0.01 | 0.01 | 62 | 1018.0 |
| 20260503015006 | 42 | 352 | 0.0 | 0.0 | 0.00 | 0.01 | 0.01 | 61 | 1017.9 |
| 20260503014514 | 42 | 352 | 0.0 | 0.0 | 0.00 | 0.01 | 0.01 | 60 | 1017.9 |
| 20260503014007 | 43 | 352 | 0.0 | 0.0 | 0.00 | 0.01 | 0.01 | 60 | 1017.9 |
| 20260503013507 | 43 | 355 | 0.0 | 0.0 | 0.00 | 0.01 | 0.01 | 60 | 1017.9 |
| 20260503013015 | 43 | 352 | 0.0 | 0.9 | 0.00 | 0.01 | 0.01 | 59 | 1017.9 |
| 20260503012504 | 43 | 352 | 0.0 | 0.9 | 0.00 | 0.01 | 0.01 | 58 | 1017.8 |
| 20260503012009 | 44 | 355 | 0.0 | 0.9 | 0.00 | 0.01 | 0.01 | 57 | 1017.8 |
| 20260503011512 | 44 | 351 | 0.0 | 0.9 | 0.00 | 0.01 | 0.01 | 57 | 1017.8 |
| 20260503011004 | 44 | 351 | 0.0 | 0.0 | 0.00 | 0.01 | 0.01 | 58 | 1017.8 |
| 20260503010504 | 44 | 351 | 0.0 | 0.9 | 0.00 | 0.01 | 0.01 | 56 | 1017.8 |
| 20260503010016 | 44 | 351 | 0.0 | 0.9 | 0.00 | 0.02 | 0.01 | 56 | 1017.7 |
| 20260503005506 | 44 | 9 | 0.0 | 2.6 | 0.00 | 0.03 | 0.01 | 57 | 1017.6 |
| 20260503005010 | 44 | 9 | 0.0 | 2.6 | 0.00 | 0.03 | 0.01 | 55 | 1017.6 |
| 20260503004516 | 44 | 19 | 0.0 | 2.6 | 0.00 | 0.03 | 0.01 | 55 | 1017.6 |
| 20260503004007 | 45 | 360 | 0.0 | 3.5 | 0.00 | 0.03 | 0.01 | 53 | 1017.6 |
| 20260503003507 | 45 | 360 | 0.0 | 3.5 | 0.00 | 0.03 | 0.01 | 55 | 1017.5 |
| 20260503003036 | 45 | 318 | 0.0 | 2.6 | 0.00 | 0.03 | 0.01 | 55 | 1017.6 |
| 20260503002507 | 45 | 336 | 0.0 | 1.7 | 0.00 | 0.03 | 0.01 | 55 | 1017.6 |
| 20260503002008 | 45 | 345 | 0.0 | 1.7 | 0.00 | 0.03 | 0.01 | 54 | 1017.6 |
| 20260503001541 | 45 | 17 | 0.0 | 1.7 | 0.00 | 0.03 | 0.01 | 53 | 1017.5 |
| 20260503001007 | 45 | 323 | 0.0 | 2.6 | 0.00 | 0.03 | 0.01 | 53 | 1017.4 |
| 20260503000504 | 45 | 348 | 0.0 | 3.5 | 0.00 | 0.03 | 0.01 | 51 | 1017.4 |
| 20260503000016 | 45 | 13 | 0.0 | 3.5 | 0.00 | 0.03 | 0.01 | 52 | 1017.4 |
| 20260502235504 | 46 | 328 | 0.0 | 0.9 | 0.00 | 0.03 | 0.01 | 52 | 1017.4 |
| 20260502235008 | 46 | 21 | 0.0 | 0.9 | 0.00 | 0.03 | 0.01 | 51 | 1017.4 |
| 20260502234523 | 46 | 21 | 0.0 | 1.7 | 0.00 | 0.03 | 0.01 | 52 | 1017.4 |
| 20260502234006 | 46 | 15 | 0.0 | 1.7 | 0.00 | 0.03 | 0.01 | 52 | 1017.3 |
| 20260502233505 | 46 | 9 | 0.0 | 1.7 | 0.00 | 0.03 | 0.01 | 51 | 1017.3 |
| 20260502233024 | 46 | 348 | 0.0 | 1.7 | 0.00 | 0.03 | 0.01 | 51 | 1017.2 |
| 20260502232507 | 46 | 14 | 0.0 | 1.7 | 0.00 | 0.03 | 0.01 | 52 | 1017.3 |
| 20260502232009 | 46 | 352 | 0.0 | 1.7 | 0.00 | 0.03 | 0.01 | 50 | 1017.3 |
| 20260502231520 | 46 | 223 | 0.0 | 3.5 | 0.00 | 0.03 | 0.01 | 50 | 1017.3 |
| 20260502231008 | 46 | 5 | 0.0 | 3.5 | 0.00 | 0.03 | 0.01 | 49 | 1017.3 |
| 20260502230508 | 47 | 281 | 0.0 | 1.7 | 0.00 | 0.03 | 0.01 | 50 | 1017.3 |
| 20260502230031 | 47 | 346 | 0.0 | 3.5 | 0.00 | 0.03 | 0.01 | 50 | 1017.3 |
| 20260502225508 | 47 | 268 | 0.0 | 3.5 | 0.00 | 0.03 | 0.01 | 50 | 1017.3 |
| 20260502225014 | 47 | 24 | 0.0 | 1.7 | 0.00 | 0.03 | 0.01 | 48 | 1017.3 |
| 20260502224517 | 47 | 304 | 0.9 | 1.7 | 0.00 | 0.03 | 0.01 | 49 | 1017.3 |
| 20260502224005 | 47 | 340 | 0.0 | 2.6 | 0.00 | 0.03 | 0.01 | 50 | 1017.3 |
| 20260502223511 | 47 | 340 | 0.0 | 2.6 | 0.00 | 0.03 | 0.01 | 48 | 1017.2 |
| 20260502223020 | 47 | 165 | 0.9 | 3.5 | 0.00 | 0.03 | 0.01 | 46 | 1017.3 |
| 20260502222508 | 48 | 352 | 0.0 | 3.5 | 0.00 | 0.03 | 0.01 | 47 | 1017.3 |
| 20260502222012 | 48 | 352 | 0.0 | 4.3 | 0.00 | 0.03 | 0.01 | 47 | 1017.3 |
| 20260502221521 | 48 | 311 | 0.9 | 4.3 | 0.00 | 0.03 | 0.01 | 45 | 1017.2 |
| 20260502221007 | 48 | 344 | 0.0 | 8.7 | 0.00 | 0.03 | 0.01 | 47 | 1017.3 |
| 20260502220503 | 48 | 61 | 0.9 | 8.7 | 0.00 | 0.03 | 0.01 | 46 | 1017.3 |
| 20260502220009 | 48 | 53 | 0.0 | 3.5 | 0.00 | 0.03 | 0.01 | 47 | 1017.3 |
| 20260502215506 | 48 | 65 | 0.9 | 6.1 | 0.00 | 0.03 | 0.01 | 45 | 1017.2 |
| 20260502215003 | 48 | 26 | 0.9 | 6.1 | 0.00 | 0.03 | 0.01 | 47 | 1017.2 |
| 20260502214516 | 49 | 360 | 0.0 | 3.5 | 0.00 | 0.03 | 0.01 | 45 | 1017.2 |
| 20260502214006 | 49 | 22 | 0.0 | 4.3 | 0.00 | 0.03 | 0.01 | 45 | 1017.2 |
| 20260502213508 | 49 | 337 | 0.9 | 4.3 | 0.00 | 0.03 | 0.01 | 45 | 1017.1 |
| 20260502213021 | 49 | 308 | 0.0 | 3.5 | 0.00 | 0.03 | 0.01 | 47 | 1017.1 |
| 20260502212507 | 49 | 58 | 0.0 | 2.6 | 0.00 | 0.03 | 0.01 | 46 | 1017.0 |
| 20260502212013 | 49 | 26 | 0.0 | 4.3 | 0.00 | 0.03 | 0.01 | 45 | 1016.9 |
| 20260502211520 | 50 | 349 | 0.0 | 4.3 | 0.00 | 0.03 | 0.01 | 44 | 1017.0 |
| 20260502211003 | 50 | 338 | 0.0 | 4.3 | 0.00 | 0.03 | 0.01 | 46 | 1016.8 |
| 20260502210503 | 50 | 24 | 0.0 | 2.6 | 0.00 | 0.03 | 0.01 | 44 | 1016.8 |
| 20260502210017 | 50 | 313 | 0.0 | 2.6 | 0.00 | 0.03 | 0.01 | 44 | 1016.9 |
| 20260502205506 | 50 | 335 | 0.0 | 4.3 | 0.00 | 0.03 | 0.01 | 43 | 1016.9 |
| 20260502205006 | 50 | 11 | 0.9 | 4.3 | 0.00 | 0.03 | 0.01 | 44 | 1016.9 |
| 20260502204513 | 50 | 22 | 0.0 | 2.6 | 0.00 | 0.03 | 0.01 | 45 | 1016.8 |
| 20260502204003 | 50 | 12 | 0.0 | 7.8 | 0.00 | 0.03 | 0.01 | 48 | 1016.9 |
| 20260502203507 | 50 | 281 | 1.7 | 7.8 | 0.00 | 0.03 | 0.01 | 45 | 1016.8 |
| 20260502203020 | 50 | 24 | 0.9 | 5.2 | 0.00 | 0.03 | 0.01 | 44 | 1016.8 |
| 20260502202507 | 50 | 9 | 0.9 | 4.3 | 0.00 | 0.03 | 0.01 | 44 | 1016.9 |
| 20260502202007 | 50 | 213 | 0.9 | 5.2 | 0.00 | 0.03 | 0.01 | 43 | 1017.0 |
| 20260502201525 | 51 | 360 | 0.0 | 5.2 | 0.00 | 0.03 | 0.01 | 43 | 1017.0 |
| 20260502201008 | 51 | 186 | 0.0 | 5.2 | 0.00 | 0.03 | 0.01 | 44 | 1017.0 |
| 20260502200510 | 51 | 318 | 0.9 | 5.2 | 0.00 | 0.03 | 0.01 | 45 | 1017.0 |
| 20260502200022 | 50 | 26 | 0.9 | 7.8 | 0.00 | 0.03 | 0.01 | 44 | 1017.0 |
| 20260502195502 | 50 | 339 | 0.0 | 7.8 | 0.00 | 0.03 | 0.01 | 45 | 1017.1 |
| 20260502195003 | 50 | 316 | 0.9 | 5.2 | 0.00 | 0.03 | 0.01 | 44 | 1017.2 |
| 20260502194509 | 51 | 352 | 0.0 | 5.2 | 0.00 | 0.03 | 0.01 | 44 | 1017.2 |
| 20260502194002 | 51 | 346 | 0.9 | 4.3 | 0.00 | 0.03 | 0.01 | 42 | 1017.2 |
| 20260502193507 | 52 | 33 | 0.9 | 4.3 | 0.00 | 0.03 | 0.01 | 43 | 1017.1 |
| 20260502193013 | 52 | 47 | 0.0 | 3.5 | 0.00 | 0.03 | 0.01 | 46 | 1017.2 |
| 20260502192506 | 51 | 87 | 0.9 | 5.2 | 0.00 | 0.03 | 0.01 | 45 | 1017.3 |
| 20260502192012 | 50 | 360 | 0.0 | 5.2 | 0.00 | 0.03 | 0.01 | 45 | 1017.3 |
| 20260502191521 | 50 | 352 | 0.9 | 3.5 | 0.00 | 0.03 | 0.01 | 47 | 1017.4 |
| 20260502191005 | 50 | 319 | 0.0 | 2.6 | 0.00 | 0.03 | 0.01 | 47 | 1017.5 |
| 20260502190502 | 50 | 22 | 0.0 | 5.2 | 0.00 | 0.03 | 0.01 | 47 | 1017.6 |
| 20260502190004 | 50 | 296 | 0.9 | 9.6 | 0.00 | 0.03 | 0.01 | 48 | 1017.5 |
| 20260502185510 | 50 | 340 | 0.9 | 9.6 | 0.00 | 0.03 | 0.01 | 49 | 1017.5 |
| 20260502185003 | 50 | 345 | 0.9 | 11.3 | 0.00 | 0.03 | 0.01 | 48 | 1017.5 |
| 20260502184507 | 50 | 28 | 0.9 | 11.3 | 0.00 | 0.03 | 0.01 | 48 | 1017.5 |
| 20260502184005 | 50 | 352 | 1.7 | 4.3 | 0.00 | 0.03 | 0.01 | 46 | 1017.5 |
| 20260502183504 | 51 | 306 | 0.9 | 4.3 | 0.00 | 0.03 | 0.01 | 45 | 1017.6 |
| 20260502183012 | 51 | 115 | 0.0 | 5.2 | 0.00 | 0.03 | 0.01 | 45 | 1017.4 |
| 20260502182508 | 51 | 61 | 0.9 | 5.2 | 0.00 | 0.03 | 0.01 | 45 | 1017.6 |
| 20260502182002 | 51 | 234 | 0.9 | 3.5 | 0.00 | 0.03 | 0.01 | 46 | 1017.4 |
| 20260502181502 | 51 | 308 | 0.0 | 6.1 | 0.00 | 0.03 | 0.01 | 47 | 1017.5 |
| 20260502181005 | 51 | 352 | 1.7 | 6.1 | 0.00 | 0.03 | 0.01 | 46 | 1017.6 |
| 20260502180503 | 50 | 82 | 0.0 | 5.2 | 0.00 | 0.03 | 0.01 | 49 | 1017.6 |
| 20260502170505 | 48 | 153 | 0.0 | 5.2 | 0.00 | 0.03 | 0.01 | 51 | 1017.8 |
| 20260502164003 | 48 | 229 | 0.9 | 5.2 | 0.00 | 0.03 | 0.01 | 50 | 1017.9 |
| 20260502163503 | 49 | 273 | 0.9 | 5.2 | 0.00 | 0.03 | 0.01 | 49 | 1018.0 |
| 20260502163004 | 49 | 347 | 0.9 | 4.3 | 0.00 | 0.03 | 0.01 | 47 | 1017.9 |
| 20260502162507 | 50 | 5 | 0.9 | 4.3 | 0.00 | 0.03 | 0.01 | 49 | 1018.1 |
| 20260502162006 | 49 | 5 | 0.9 | 3.5 | 0.00 | 0.03 | 0.01 | 50 | 1018.1 |
| 20260502161510 | 50 | 227 | 0.0 | 3.5 | 0.00 | 0.03 | 0.01 | 50 | 1018.1 |
| 20260502161006 | 51 | 89 | 0.0 | 6.1 | 0.00 | 0.03 | 0.01 | 50 | 1018.1 |
| 20260502160509 | 51 | 335 | 1.7 | 6.1 | 0.00 | 0.03 | 0.01 | 51 | 1018.0 |
| 20260502152004 | 48 | 45 | 0.0 | 4.3 | 0.00 | 0.05 | 0.01 | 56 | 1018.0 |
| 20260502151509 | 49 | 224 | 0.9 | 8.7 | 0.00 | 0.05 | 0.01 | 54 | 1018.0 |
| 20260502151003 | 49 | 15 | 0.9 | 8.7 | 0.00 | 0.06 | 0.01 | 57 | 1018.0 |
| 20260502150503 | 48 | 5 | 0.0 | 3.5 | 0.00 | 0.07 | 0.01 | 60 | 1018.1 |
| 20260502130503 | 39 | 275 | 0.9 | 4.3 | 0.00 | 0.10 | 0.01 | 79 | 1017.7 |
| 20260502123508 | 36 | 9 | 0.0 | 2.6 | 0.00 | 0.11 | 0.01 | 84 | 1017.6 |
| 20260502123018 | 36 | 184 | 0.0 | 2.6 | 0.00 | 0.11 | 0.01 | 86 | 1017.6 |
| 20260502122505 | 36 | 9 | 0.0 | 1.7 | 0.00 | 0.11 | 0.01 | 88 | 1017.5 |
| 20260502122010 | 35 | 337 | 0.0 | 1.7 | 0.00 | 0.11 | 0.01 | 89 | 1017.4 |
| 20260502121526 | 35 | 271 | 0.0 | 1.7 | 0.00 | 0.11 | 0.01 | 90 | 1017.5 |
| 20260502121010 | 35 | 49 | 0.0 | 1.7 | 0.00 | 0.11 | 0.01 | 92 | 1017.5 |
| 20260502120507 | 35 | 11 | 0.0 | 1.7 | 0.00 | 0.11 | 0.01 | 93 | 1017.4 |
| 20260502115508 | 34 | 79 | 0.0 | 0.9 | 0.00 | 0.11 | 0.01 | 94 | 1017.3 |
| 20260502115013 | 33 | 303 | 0.0 | 1.7 | 0.00 | 0.11 | 0.01 | 94 | 1017.4 |
| 20260502114513 | 33 | 231 | 0.0 | 1.7 | 0.00 | 0.11 | 0.01 | 95 | 1017.4 |
| 20260502114006 | 33 | 41 | 0.0 | 0.0 | 0.00 | 0.11 | 0.01 | 95 | 1017.3 |
| 20260502113505 | 32 | 41 | 0.0 | 0.0 | 0.00 | 0.11 | 0.01 | 95 | 1017.3 |
| 20260502113016 | 32 | 41 | 0.0 | 0.0 | 0.00 | 0.11 | 0.01 | 94 | 1017.3 |
| 20260502112505 | 32 | 38 | 0.0 | 0.9 | 0.00 | 0.11 | 0.01 | 94 | 1017.3 |
| 20260502112009 | 32 | 38 | 0.0 | 0.9 | 0.00 | 0.11 | 0.01 | 94 | 1017.3 |
| 20260502111519 | 31 | 38 | 0.0 | 0.9 | 0.00 | 0.11 | 0.01 | 94 | 1017.1 |
| 20260502111005 | 31 | 38 | 0.0 | 0.0 | 0.00 | 0.11 | 0.01 | 94 | 1017.1 |
| 20260502110510 | 31 | 38 | 0.0 | 0.0 | 0.00 | 0.11 | 0.01 | 94 | 1017.1 |
| 20260502110025 | 31 | 38 | 0.0 | 0.0 | 0.00 | 0.11 | 0.01 | 94 | 1017.2 |
| 20260502105512 | 31 | 38 | 0.0 | 0.0 | 0.00 | 0.11 | 0.01 | 94 | 1017.2 |
| 20260502105012 | 31 | 38 | 0.0 | 0.0 | 0.00 | 0.11 | 0.01 | 94 | 1017.0 |
| 20260502104534 | 31 | 38 | 0.0 | 0.0 | 0.00 | 0.11 | 0.01 | 93 | 1017.0 |
| 20260502104009 | 31 | 38 | 0.0 | 0.0 | 0.00 | 0.11 | 0.01 | 93 | 1017.0 |
| 20260502103510 | 31 | 38 | 0.0 | 0.0 | 0.00 | 0.11 | 0.01 | 93 | 1017.0 |
| 20260502103012 | 32 | 38 | 0.0 | 0.0 | 0.00 | 0.11 | 0.01 | 93 | 1017.0 |
| 20260502102507 | 32 | 38 | 0.0 | 0.0 | 0.00 | 0.11 | 0.01 | 94 | 1017.0 |
| 20260502102008 | 32 | 38 | 0.0 | 0.0 | 0.00 | 0.11 | 0.01 | 94 | 1017.0 |
| 20260502101516 | 32 | 38 | 0.0 | 0.0 | 0.00 | 0.11 | 0.01 | 94 | 1017.1 |
| 20260502101004 | 32 | 38 | 0.0 | 0.0 | 0.00 | 0.11 | 0.01 | 94 | 1017.0 |
| 20260502100502 | 32 | 38 | 0.0 | 0.0 | 0.00 | 0.11 | 0.01 | 94 | 1016.9 |
| 20260502091511 | 32 | 38 | 0.0 | 0.0 | 0.00 | 0.11 | 0.01 | 94 | 1017.1 |
| 20260502091006 | 32 | 38 | 0.0 | 0.0 | 0.00 | 0.11 | 0.01 | 94 | 1017.1 |
| 20260502090506 | 32 | 38 | 0.0 | 0.0 | 0.00 | 0.11 | 0.01 | 94 | 1017.0 |
| 20260502071507 | 34 | 38 | 0.0 | 0.0 | 0.01 | 0.11 | 0.01 | 93 | 1016.7 |
| 20260502071004 | 34 | 38 | 0.0 | 0.0 | 0.01 | 0.11 | 0.01 | 93 | 1016.8 |
| 20260502070504 | 35 | 38 | 0.0 | 0.0 | 0.01 | 0.11 | 0.01 | 93 | 1016.9 |
| 20260502070012 | 35 | 38 | 0.0 | 0.0 | 0.01 | 0.11 | 0.01 | 93 | 1017.0 |
| 20260502065505 | 35 | 38 | 0.0 | 0.0 | 0.01 | 0.11 | 0.01 | 93 | 1017.0 |
| 20260502065009 | 35 | 38 | 0.0 | 0.0 | 0.01 | 0.11 | 0.01 | 93 | 1017.0 |
| 20260502064517 | 35 | 38 | 0.0 | 0.0 | 0.01 | 0.11 | 0.01 | 93 | 1017.1 |
| 20260502064007 | 35 | 38 | 0.0 | 0.0 | 0.01 | 0.11 | 0.01 | 93 | 1017.1 |
| 20260502063507 | 35 | 38 | 0.0 | 0.0 | 0.01 | 0.11 | 0.01 | 93 | 1017.1 |
| 20260502063025 | 35 | 38 | 0.0 | 0.0 | 0.00 | 0.10 | 0.00 | 93 | 1017.0 |
| 20260502062511 | 35 | 38 | 0.0 | 0.0 | 0.00 | 0.10 | 0.00 | 93 | 1017.0 |
| 20260502062013 | 36 | 38 | 0.0 | 0.0 | 0.00 | 0.10 | 0.00 | 93 | 1017.1 |
| 20260502061505 | 36 | 38 | 0.0 | 0.0 | 0.00 | 0.10 | 0.00 | 93 | 1017.0 |
| 20260502061004 | 36 | 38 | 0.0 | 0.0 | 0.00 | 0.10 | 0.00 | 93 | 1017.1 |
| 20260502060503 | 36 | 38 | 0.0 | 0.0 | 0.00 | 0.10 | 0.00 | 93 | 1017.1 |
| 20260502060006 | 36 | 38 | 0.0 | 0.0 | 0.00 | 0.10 | 0.00 | 93 | 1017.1 |
| 20260502055504 | 36 | 38 | 0.0 | 0.0 | 0.00 | 0.10 | 0.00 | 93 | 1017.1 |
| 20260502055006 | 36 | 38 | 0.0 | 0.0 | 0.00 | 0.10 | 0.00 | 93 | 1017.1 |
| 20260502054512 | 36 | 38 | 0.0 | 0.0 | 0.00 | 0.10 | 0.00 | 93 | 1017.1 |
| 20260502054006 | 36 | 38 | 0.0 | 0.0 | 0.00 | 0.10 | 0.00 | 93 | 1017.2 |
| 20260502053507 | 36 | 38 | 0.0 | 0.0 | 0.00 | 0.10 | 0.00 | 93 | 1017.3 |
| 20260502053019 | 36 | 38 | 0.0 | 0.9 | 0.00 | 0.10 | 0.00 | 93 | 1017.4 |
| 20260502052513 | 36 | 38 | 0.0 | 0.9 | 0.00 | 0.10 | 0.00 | 93 | 1017.4 |
| 20260502052007 | 36 | 38 | 0.0 | 0.0 | 0.00 | 0.10 | 0.00 | 93 | 1017.3 |
| 20260502051527 | 36 | 38 | 0.0 | 0.0 | 0.00 | 0.10 | 0.00 | 93 | 1017.3 |
| 20260502051007 | 37 | 38 | 0.0 | 0.0 | 0.00 | 0.10 | 0.00 | 93 | 1017.4 |
| 20260502050507 | 37 | 38 | 0.0 | 0.0 | 0.00 | 0.10 | 0.00 | 93 | 1017.3 |
| 20260502050025 | 37 | 38 | 0.0 | 0.0 | 0.00 | 0.10 | 0.00 | 93 | 1017.3 |
| 20260502045504 | 37 | 38 | 0.0 | 0.0 | 0.00 | 0.10 | 0.00 | 92 | 1017.3 |
| 20260502045005 | 37 | 38 | 0.0 | 0.0 | 0.00 | 0.10 | 0.00 | 92 | 1017.3 |
| 20260502044510 | 37 | 38 | 0.0 | 0.0 | 0.00 | 0.10 | 0.00 | 93 | 1017.2 |
| 20260502044007 | 37 | 38 | 0.0 | 0.0 | 0.00 | 0.10 | 0.00 | 92 | 1017.2 |
| 20260502043506 | 37 | 38 | 0.0 | 0.0 | 0.00 | 0.10 | 0.00 | 92 | 1017.2 |
| 20260502043017 | 37 | 38 | 0.0 | 0.9 | 0.00 | 0.10 | 0.00 | 92 | 1017.2 |
| 20260502042507 | 38 | 38 | 0.0 | 0.9 | 0.00 | 0.10 | 0.00 | 92 | 1017.2 |
| 20260502042011 | 37 | 38 | 0.0 | 0.0 | 0.00 | 0.10 | 0.00 | 92 | 1017.3 |
| 20260502041522 | 38 | 38 | 0.0 | 0.0 | 0.00 | 0.10 | 0.00 | 92 | 1017.3 |
| 20260502041007 | 38 | 38 | 0.0 | 0.0 | 0.00 | 0.10 | 0.00 | 92 | 1017.3 |
| 20260502040509 | 38 | 38 | 0.0 | 0.9 | 0.00 | 0.10 | 0.00 | 92 | 1017.2 |
| 20260502040034 | 38 | 38 | 0.0 | 0.9 | 0.00 | 0.10 | 0.00 | 92 | 1017.2 |
| 20260502035509 | 38 | 38 | 0.0 | 0.9 | 0.00 | 0.10 | 0.10 | 92 | 1017.1 |
| 20260502035014 | 38 | 39 | 0.0 | 0.9 | 0.00 | 0.10 | 0.10 | 92 | 1017.0 |
| 20260502034528 | 38 | 39 | 0.0 | 0.0 | 0.00 | 0.10 | 0.10 | 91 | 1017.1 |
| 20260502034008 | 38 | 39 | 0.0 | 0.0 | 0.00 | 0.10 | 0.10 | 91 | 1017.1 |
| 20260502033502 | 38 | 39 | 0.0 | 0.0 | 0.00 | 0.10 | 0.10 | 91 | 1017.1 |
| 20260502033011 | 38 | 39 | 0.0 | 0.0 | 0.00 | 0.10 | 0.10 | 91 | 1017.1 |
| 20260502032504 | 39 | 39 | 0.0 | 0.9 | 0.00 | 0.10 | 0.10 | 91 | 1017.1 |
| 20260502032010 | 39 | 39 | 0.0 | 0.9 | 0.00 | 0.10 | 0.10 | 91 | 1017.1 |
| 20260502031517 | 39 | 39 | 0.0 | 0.9 | 0.00 | 0.10 | 0.10 | 91 | 1017.3 |
| 20260502031006 | 39 | 39 | 0.0 | 0.9 | 0.00 | 0.10 | 0.10 | 91 | 1017.2 |
| 20260502030510 | 39 | 39 | 0.0 | 0.9 | 0.00 | 0.10 | 0.10 | 91 | 1017.3 |
| 20260502030021 | 39 | 39 | 0.0 | 0.9 | 0.00 | 0.10 | 0.10 | 91 | 1017.3 |
| 20260502025511 | 39 | 39 | 0.0 | 0.9 | 0.00 | 0.10 | 0.10 | 90 | 1017.4 |
| 20260502025008 | 39 | 46 | 0.0 | 0.0 | 0.00 | 0.10 | 0.10 | 90 | 1017.2 |
| 20260502024537 | 39 | 46 | 0.0 | 0.9 | 0.00 | 0.10 | 0.10 | 90 | 1017.3 |
| 20260502024010 | 40 | 46 | 0.0 | 0.9 | 0.00 | 0.10 | 0.10 | 89 | 1017.4 |
| 20260502023510 | 40 | 46 | 0.0 | 0.9 | 0.00 | 0.10 | 0.10 | 90 | 1017.3 |
| 20260502023031 | 40 | 46 | 0.0 | 1.7 | 0.00 | 0.10 | 0.10 | 89 | 1017.3 |
| 20260502022511 | 40 | 55 | 0.0 | 1.7 | 0.00 | 0.10 | 0.10 | 89 | 1017.2 |